Hayward, WI

8:50 PM CDT on July 24, 2017 (GMT -0500)
Sawyer County

Weather History for KHYR - August, 2013

Change the Weather History Date:

Friday, August 30, 2013

  Actual Average Record
Temperature  
Mean Temperature 70 °F -  
Max Temperature 80 °F 83 °F 90 °F (2006)
Min Temperature 57 °F 52 °F 37 °F (2003)
Cooling Degree Days 4    
Growing Degree Days 20 (Base 50)    
Moisture  
Dew Point 64 °F    
Average Humidity 81    
Maximum Humidity 100    
Minimum Humidity 50    
Precipitation  
Precipitation 0.00 in - - ()
Sea Level Pressure  
Sea Level Pressure 29.91 in    
Wind  
Wind Speed 3 mph (NE)    
Max Wind Speed 13 mph    
Max Gust Speed 18 mph    
Visibility 9 miles    
Events      
Averages and records for this station are not official NWS values.
T = Trace of Precipitation, MM = Missing Value Source: NWS Daily Summary

Daily Weather History Graph

Daily Weather History Graph

Search for Another Location

Airport or City:

Trip Planner

Search our weather history database for the weather conditions in past years. The results will help you decide how hot, cold, wet, or windy it might be!

Date:

Astronomy

Aug. 30, 2013 Rise Set
Actual Time 6:24 AM CDT 7:47 PM CDT
Civil Twilight 5:53 AM CDT 8:18 PM CDT
Nautical Twilight 5:15 AM CDT 8:55 PM CDT
Astronomical Twilight 4:35 AM CDT 9:35 PM CDT
Moon 12:53 AM CDT (8/30) 4:12 PM CDT (8/30)
Length of Visible Light 14h 25m
Length of Day
13h 23m
Waning Crescent, 29% of the Moon is Illuminated
Aug 30
Waning Crescent
Sep 5
New
Sep 12
First Quarter
Sep 19
Full
Sep 26
Last Quarter

Hourly Weather History & Observations

Time (CDT) Temp. Heat Index Dew Point Humidity Pressure Visibility Wind Dir Wind Speed Gust Speed Precip Events Conditions
12:53 AM 72.0 °F - 70.0 °F 93% 29.85 in 10.0 mi Calm Calm - N/A   Mostly Cloudy
1:53 AM 71.1 °F - 70.0 °F 96% 29.84 in 3.0 mi Calm Calm - N/A   Overcast
2:53 AM 71.1 °F - 70.0 °F 96% 29.83 in 6.0 mi Calm Calm - N/A   Overcast
3:53 AM 71.1 °F - 70.0 °F 96% 29.84 in 5.0 mi Calm Calm - N/A   Overcast
4:53 AM 71.1 °F - 70.0 °F 96% 29.85 in 10.0 mi Calm Calm - N/A   Overcast
5:49 AM 71.6 °F - 69.8 °F 94% 29.87 in 10.0 mi Calm Calm - N/A   Overcast
5:53 AM 71.1 °F - 69.1 °F 93% 29.86 in 10.0 mi Variable 3.5 mph - N/A   Overcast
6:28 AM 69.8 °F - 66.2 °F 88% 29.88 in 10.0 mi Variable 4.6 mph - N/A   Overcast
6:37 AM 69.8 °F - 66.2 °F 88% 29.88 in 10.0 mi Variable 4.6 mph - N/A   Overcast
6:53 AM 69.1 °F - 66.0 °F 90% 29.88 in 10.0 mi Calm Calm - N/A   Mostly Cloudy
7:27 AM 69.8 °F - 64.4 °F 83% 29.90 in 10.0 mi Variable 4.6 mph - N/A   Scattered Clouds
7:53 AM 69.1 °F - 64.0 °F 84% 29.90 in 10.0 mi Variable 6.9 mph - N/A   Clear
8:13 AM 69.8 °F - 64.4 °F 83% 29.90 in 10.0 mi Variable 5.8 mph - N/A   Mostly Cloudy
8:49 AM 69.8 °F - 64.4 °F 83% 29.91 in 10.0 mi Variable 5.8 mph - N/A   Overcast
8:53 AM 69.1 °F - 64.0 °F 84% 29.91 in 10.0 mi Variable 5.8 mph - N/A   Overcast
9:53 AM 72.0 °F - 64.9 °F 78% 29.93 in 10.0 mi Variable 5.8 mph - N/A   Overcast
10:53 AM 72.0 °F - 66.0 °F 81% 29.94 in 10.0 mi Variable 5.8 mph - N/A   Overcast
10:57 AM 71.6 °F - 66.2 °F 83% 29.96 in 10.0 mi NNE 4.6 mph - N/A   Overcast
11:13 AM 71.6 °F - 66.2 °F 83% 29.96 in 10.0 mi Variable 6.9 mph - N/A   Overcast
11:39 AM 71.6 °F - 64.4 °F 78% 29.96 in 10.0 mi NNE 4.6 mph - N/A   Overcast
11:53 AM 75.0 °F - 64.9 °F 71% 29.96 in 10.0 mi Variable 5.8 mph - N/A   Overcast
12:12 PM 73.4 °F - 64.4 °F 73% 29.97 in 10.0 mi NE 10.4 mph 16.1 mph N/A   Scattered Clouds
12:53 PM 78.1 °F - 64.0 °F 62% 29.94 in 10.0 mi NNE 8.1 mph 17.3 mph N/A   Scattered Clouds
1:53 PM 80.1 °F 81.2 °F 62.1 °F 54% 29.94 in 10.0 mi ENE 11.5 mph - N/A   Partly Cloudy
2:53 PM 80.1 °F 81.1 °F 61.0 °F 52% 29.93 in 10.0 mi ENE 12.7 mph 18.4 mph N/A   Clear
3:53 PM 80.1 °F 80.9 °F 60.1 °F 50% 29.93 in 10.0 mi NNE 8.1 mph - N/A   Clear
4:53 PM 78.1 °F - 61.0 °F 56% 29.94 in 10.0 mi NE 9.2 mph 16.1 mph N/A   Clear
5:53 PM 75.0 °F - 62.1 °F 64% 29.94 in 10.0 mi Variable 5.8 mph - N/A   Clear
6:53 PM 71.1 °F - 60.1 °F 68% 29.94 in 10.0 mi ENE 9.2 mph 17.3 mph N/A   Clear
7:53 PM 64.9 °F - 61.0 °F 87% 29.95 in 10.0 mi ENE 3.5 mph - N/A   Clear
8:53 PM 61.0 °F - 57.9 °F 90% 29.95 in 10.0 mi Calm Calm - N/A   Clear
9:53 PM 61.0 °F - 59.0 °F 93% 29.94 in 10.0 mi Calm Calm - N/A   Clear
10:53 PM 59.0 °F - 57.9 °F 96% 29.95 in 9.0 mi Calm Calm - N/A   Clear
11:53 PM 57.9 °F - 57.9 °F 100% 29.94 in 7.0 mi Calm Calm - N/A   Clear